Terug naar catalogus

KUIPER-00096

ActiefCommunicatieLEO
NORAD 65135·PAYLOAD·🇺🇸 United States

Gelanceerd Aug 11, 2025 vanaf Cape Canaveral Space Force Station

Loading…

Volgende Passages (komende 24 uur)

TLE

VersSource: CelesTrak SupGP

Epoch: Sep 15, 2026, 04:58 UTC

1 65135C 25171D   26258.20740741 -.00006899  00000+0 -90309-3 0  2589
2 65135  51.8998  40.0188 0000538 115.2071 104.9292 14.79941078    14

Volg KUIPER-00096 in realtime met AllMySat

Download on the App Store